Content
SEND FEEDBACK

Daily
Averages
Monthly
Summary
United States of America

SPRING GROVE, PENNSYLVANIA


Home > North America > United States > Pennsylvania
Elevation: 470 feet     Latitude: 39 52N     Longitude: 076 52W

WEATHER
 
SELECT A DAY
Number of Records: 190,761;   Date Range: 8/13/97 - 8/30/14
 
SHARE

PRINT THIS DATA

[ ← Previous Day ]
WEATHER ALMANAC - JANUARY 31, 2013
[ Next Day → ]
[ °C ]   °F
Weather ElementAverageHighLow
Temperature40.4 °F55.4 °F (1:06 am)27 °F (9:53 pm)
Dewpoint27.7 °F53.6 °F (1:06 am)8.1 °F (8:53 pm)
Humidity62.6 %94 % (1:06 am)42 % (12:53 pm)
Barometer29.52 in29.87 in (7:53 pm)29.15 in (1:26 am)
Wind Speed14 mph26.5 mph (6:53 am)
Wind Gust38 mph (5:53 am)
Weather ElementAverage
Visibility8.6 mi
Wind DirectionWSW (259.6 °)

Weather ElementTotal
Precipitation---
Heating Degree Days23.8 (Base 65)
Averaged from 28 records on January 31, 2013
WEATHER CONDITIONS BREAKOUT
WIND DIRECTION BREAKOUT
WEATHER BY HOUR - JANUARY 31, 2013
[ °C ]   °F
Local TimeTemperatureDewpointHumidityBarometerVisibilityWind DirectionWind SpeedGust SpeedPrecipitationEventsConditions
1:06 AM55.4 °F53.6 °F94 %29.18 in2.0 miSSW (210°)6.9 mphRainHeavy Rain
1:18 AM55.4 °F53.6 °F94 %29.17 in1.5 miSouth (190°)4.6 mphRainHeavy Rain
1:26 AM55.4 °F53.6 °F94 %29.15 in2.5 miSSW (200°)5.8 mphRainHeavy Rain
1:37 AM55.4 °F53.6 °F94 %29.15 in5.0 miSouth (190°)4.6 mphRainLight Rain
1:53 AM54.0 °F52.0 °F93 %29.22 in5.0 miWest (260°)12.7 mph24.2 mphRainLight Rain
2:05 AM53.6 °F51.8 °F94 %29.19 in6.0 miWSW (250°)8.1 mphRainRain
2:53 AM52.0 °F50.0 °F93 %29.17 in9.0 miWSW (250°)5.8 mphRainLight Rain
3:53 AM52.0 °F46.9 °F83 %29.19 in10.0 miWest (260°)10.4 mph24.2 mphRainLight Rain
4:53 AM46.0 °F33.1 °F61 %29.26 in10.0 miWest (280°)21.9 mph33.4 mphOvercast
5:53 AM44.1 °F28.9 °F55 %29.33 in10.0 miWest (280°)21.9 mph38.0 mphOvercast
6:53 AM39.0 °F24.1 °F55 %29.42 in10.0 miWest (280°)26.5 mph38.0 mphScattered Clouds
7:53 AM39.0 °F23.0 °F53 %29.47 in10.0 miWest (270°)11.5 mph20.7 mphMostly Cloudy
8:53 AM39.0 °F23.0 °F53 %29.52 in10.0 miWest (280°)16.1 mph24.2 mphScattered Clouds
9:53 AM37.0 °F21.9 °F54 %29.56 in10.0 miWest (270°)24.2 mph32.2 mphMostly Cloudy
10:53 AM39.0 °F19.9 °F46 %29.58 in10.0 miWNW (290°)18.4 mph25.3 mphScattered Clouds
11:53 AM41.0 °F21.9 °F47 %29.61 in10.0 miWest (270°)21.9 mph33.4 mphScattered Clouds
12:53 PM37.0 °F16.0 °F42 %29.64 in10.0 miWest (280°)25.3 mph33.4 mphScattered Clouds
1:53 PM36.0 °F17.1 °F46 %29.66 in10.0 miWest (280°)20.7 mph34.5 mphMostly Cloudy
2:53 PM36.0 °F16.0 °F44 %29.69 in10.0 miWNW (290°)17.3 mph29.9 mphMostly Cloudy
3:53 PM33.1 °F17.1 °F52 %29.72 in10.0 miWest (280°)19.6 mph32.2 mph0.00 inOvercast
4:53 PM32.0 °F19.0 °F59 %29.75 in10.0 miWest (270°)11.5 mph29.9 mph0.00 inMostly Cloudy
5:53 PM30.9 °F19.0 °F61 %29.78 in10.0 miWNW (290°)15.0 mph20.7 mphOvercast
6:53 PM30.0 °F15.1 °F54 %29.84 in9.0 miWest (270°)15.0 mph32.2 mph0.00 inSnowLight Snow
7:53 PM28.9 °F10.0 °F45 %29.87 in10.0 miWest (280°)16.1 mph25.3 mph0.00 inMostly Cloudy
8:53 PM28.0 °F8.1 °F43 %29.87 in10.0 miWest (260°)9.2 mph18.4 mphMostly Cloudy
9:53 PM27.0 °F9.0 °F47 %29.87 in10.0 miWSW (250°)8.1 mphPartly Cloudy
10:53 PM27.0 °F9.0 °F47 %29.87 in10.0 miWSW (240°)6.9 mphClear
11:53 PM27.0 °F10.0 °F49 %29.87 in10.0 miWSW (250°)6.9 mph17.3 mphClear
Hourly data recorded from KTHV, located miles away from Spring Grove, Pennsylvania







STORIES FROM OUR PARTNERS